CAPE
0 4 30 0 0 0 0 1 26 39 0 0 9 0 1 26 47 73 548 950 1249 1268 1671 1946 1857 1450 1349 1374 1620 1715 1870 1781 1620 1193 1066 1260 1488 1542 1773 1277 445 170 52 0
1 0 8 0 0 0 4 45 8 18 3 0 1 2 21 0 105 259 529 875 1197 1386 1482 1813 1975 1709 1592 1596 1663 1616 1615 1800 2011 1372 1521 1711 1839 1180 974 642 289 279 192 133
8 2 0 0 0 11 11 24 2 0 0 0 13 32 30 29 338 479 645 934 1046 1019 736 1011 1497 1778 1760 1830 1792 1787 1844 1875 2108 1858 1665 1910 1782 1748 930 1052 416 166 134 43
8 0 0 0 38 8 60 0 0 0 0 57 0 38 114 35 74 160 391 378 269 208 187 336 659 1101 1577 1650 1607 1731 1884 1968 2075 2189 1797 1773 1825 1264 562 368 121 237 124 11
17 0 0 15 22 0 6 0 0 0 6 13 12 0 141 74 147 81 118 105 111 128 191 162 526 663 590 1005 1090 1598 1968 2269 2185 1993 2004 1702 1151 433 151 77 693 1075 859 2
12 0 0 27 0 0 0 16 34 25 58 73 17 0 149 18 29 135 100 71 106 105 100 177 365 427 492 501 594 1161 1998 2294 2199 2069 1878 1449 993 645 421 439 254 56 21 0
0 0 0 0 7 73 48 50 89 75 38 57 0 0 100 4 0 0 0 15 78 151 158 171 224 310 433 369 528 792 1378 1806 2066 1639 1014 709 582 626 584 198 79 124 19 2
48 40 0 0 0 49 106 98 66 64 87 39 14 38 61 0 0 0 0 0 7 42 112 225 270 409 267 366 778 989 735 969 930 837 607 487 584 376 176 297 205 114 28 6
71 90 4 0 1 7 136 119 83 280 153 88 81 90 116 8 25 31 35 50 65 80 218 273 294 399 363 468 689 811 366 520 519 544 482 529 403 385 307 267 240 88 21 1
130 129 36 0 1 36 163 15 168 59 102 105 40 112 4 19 21 2 0 38 84 175 235 298 348 374 579 499 473 371 334 249 283 391 338 348 462 54 163 208 168 27 27 4
88 108 112 41 96 184 161 93 106 114 151 119 122 115 59 12 16 28 34 26 40 162 226 230 204 231 461 322 220 244 235 283 269 207 326 30 45 155 272 179 42 4 19 44
167 322 318 27 152 58 34 100 84 122 63 67 148 119 85 48 24 58 43 138 197 129 118 143 144 219 208 189 300 402 425 297 265 153 22 62 51 204 255 53 1 0 67 87
289 111 223 252 228 151 4 65 95 152 320 170 211 141 22 67 60 180 151 122 149 83 142 180 216 184 167 482 366 349 461 454 137 18 3 0 226 163 43 2 0 46 90 95
311 409 289 176 173 293 192 125 98 124 236 129 118 75 82 177 132 140 159 175 158 178 164 164 156 216 224 443 679 523 473 226 70 6 35 116 50 16 0 6 69 120 48 2
948 522 319 199 122 88 123 146 123 137 134 72 71 79 135 213 126 147 191 167 163 219 201 185 247 353 422 513 223 4 48 272 78 66 75 20 1 4 16 49 59 7 16 21
679 635 438 262 195 167 186 156 71 89 60 68 107 93 76 149 165 247 238 117 142 116 107 176 275 321 326 309 71 27 143 105 58 25 7 0 0 27 42 32 67 81 93 100
558 424 434 283 283 306 226 75 106 29 40 97 111 102 100 226 308 303 204 238 323 414 358 309 182 63 97 261 4 52 37 6 6 4 0 4 3 17 23 46 54 14 70 88
363 376 278 240 229 202 167 118 40 31 47 79 123 88 178 210 313 382 210 232 414 292 205 63 8 0 11 3 0 64 3 8 8 0 0 4 8 25 23 45 30 24 0 24
561 414 202 342 177 78 106 224 196 234 258 49 206 123 128 260 386 466 90 195 199 79 12 0 0 0 28 117 89 35 11 13 0 0 15 0 25 14 31 30 23 29 39 65
335 477 230 85 113 219 359 207 194 63 22 301 330 310 335 353 305 425 315 230 43 5 0 0 0 0 53 187 51 16 19 0 0 22 0 19 25 20 31 42 42 80 96 161
366 263 273 194 191 149 155 86 14 9 537 577 488 506 518 692 659 533 358 90 20 0 0 0 0 5 132 47 12 12 9 0 6 0 0 19 15 26 53 29 48 95 111 116
330 239 272 139 95 78 154 34 70 1079 719 635 589 615 624 468 398 270 48 32 1 0 0 0 0 12 113 5 23 9 0 0 23 0 11 20 16 28 38 60 59 80 98 82
198 163 275 46 49 51 31 160 339 728 633 661 558 483 391 295 129 10 1 0 2 0 0 0 1 26 30 7 10 7 0 10 0 0 7 12 13 27 21 56 70 117 110 77
92 96 2 0 0 1 46 22 362 674 616 502 563 391 163 30 2 0 0 1 1 0 0 0 5 26 22 12 10 0 0 20 0 4 8 17 29 49 42 51 66 49 107 138
102 133 64 26 21 8 16 14 292 642 421 271 256 118 0 0 0 0 1 1 0 0 0 1 11 39 14 16 6 0 0 8 0 11 22 33 44 61 76 50 23 47 0 1
30 57 40 51 27 0 30 75 333 159 206 289 115 0 0 0 0 0 0 0 0 0 2 3 10 21 18 16 6 0 18 6 0 60 35 17 50 22 32 72 43 0 0 0
CIN
0 0 -1 -1 0 0 0 -1 -1 0 0 0 0 0 -2 -1 -16 -1 -1 0 0 0 0 -6 -40 -40 -50 -56 -60 -50 -32 -25 -29 -11 0 -3 -8 -10 -3 -1 -1 -27 -40 0
0 0 -2 0 0 0 0 0 -17 0 -2 0 0 0 -1 0 -11 -9 0 0 0 -1 -1 -10 -27 -30 -43 -40 -54 -56 -39 -18 -13 -2 0 -1 -3 -3 -2 -7 -24 -23 -35 -21
0 -1 0 0 0 0 -9 -1 -6 0 0 0 -26 0 -1 -18 0 -11 -14 -2 -1 -1 -2 -1 -2 -12 -17 -28 -41 -40 -34 -23 -16 -12 -1 -2 -2 -6 -6 -3 -1 -4 -24 -51
0 0 0 0 -1 -10 0 0 0 0 0 -1 0 -4 -1 -3 0 -1 -1 -1 -1 -2 -5 -5 -2 0 -1 -1 -2 -33 -32 -23 -15 -19 -10 -6 -2 -1 -4 -3 -2 -9 -22 -129
-1 0 0 0 -6 0 0 0 0 0 0 -6 -2 0 -9 -1 0 -1 -2 -2 0 -1 -1 -1 -1 -1 -1 -1 0 -1 -24 -24 -30 -31 -24 -2 0 -9 -32 -50 -6 -2 -3 -1
0 0 0 -1 0 0 0 0 -1 -4 0 -1 -15 0 -5 -16 -15 -1 -1 0 -1 0 -5 -1 -1 -3 -1 -2 -1 -1 -3 -14 -17 -12 -9 -31 -56 -72 -56 -38 -54 -52 -26 0
0 0 0 0 0 -2 -2 -3 -2 0 -3 -1 -3 0 0 -21 0 0 0 0 -2 -1 -2 -1 -9 -1 -4 -1 -1 -1 -3 -2 -3 -16 -42 -56 -71 -61 -36 -37 -37 -28 -29 -7
0 -1 -1 0 0 -2 0 -2 -3 -3 0 -1 0 -4 -3 0 0 0 0 0 0 -1 -2 -2 -2 -2 -3 -2 -4 -13 -3 -15 -19 -32 -45 -70 -73 -50 -55 -19 -31 -34 -47 -4
-1 -1 -15 0 0 -5 -3 -62 -4 -1 -2 -1 -6 -1 -2 -7 -1 0 0 -1 -1 -5 -1 -2 -3 0 0 -3 -11 -8 -9 -14 -23 -36 -63 -52 -53 -40 -35 -29 -23 -20 -33 0
-1 0 -3 0 -3 -11 -1 -15 0 0 0 -1 -4 -1 -37 -1 -8 -12 0 -1 -1 -2 -1 -1 0 -2 -3 -1 -5 -4 -14 -20 -23 -39 -57 -55 -59 -86 -17 -7 -13 -39 0 0
-1 -11 -40 -2 -2 -6 -4 -20 -3 0 -2 0 0 -2 -5 -25 -21 -10 -5 -3 -1 -1 0 -1 -1 -2 -2 -1 -1 -3 -1 -10 -2 -2 -19 -142 -81 -63 -7 -2 -18 0 0 0
-2 -1 0 -51 -1 -4 -1 0 0 0 0 0 0 -1 -4 0 -2 -1 -1 -1 -3 -6 -7 -2 -1 -1 -1 -1 -1 -1 -13 -14 -1 -46 -5 -11 -6 -3 -9 -4 -1 0 0 0
-3 -1 0 0 -3 -46 -18 -6 0 -1 -1 0 0 0 -3 -1 -5 -1 0 -1 0 -2 0 -1 -1 -2 -6 -7 -1 -2 -3 -1 -13 -38 -76 -1 -1 -2 -2 -2 0 -1 0 0
-51 -3 -1 0 -7 -2 -19 -1 -2 -1 0 0 0 -1 -1 0 0 -1 -1 -1 0 0 0 0 -2 -1 -1 -1 -2 -5 -5 -42 -54 -24 -5 -2 -5 -2 0 -3 -3 0 -1 0
-21 -3 -1 -1 0 0 0 0 -1 -1 -1 0 0 -1 0 -1 -1 -2 -1 -1 -1 -1 -1 0 0 -1 0 -1 -17 -10 -32 -20 -43 -11 -1 -8 -1 0 0 -1 0 0 -7 0
-29 -1 -2 0 0 0 0 -1 0 -2 -2 0 -1 0 -4 0 -1 0 -1 -1 -1 0 0 -1 -1 0 -1 -2 -30 -37 -6 -29 -32 -16 0 0 0 0 0 0 0 0 0 0
-7 -1 -1 -1 0 -1 -1 -16 -2 -4 -2 0 0 0 0 -1 0 -1 -1 0 -1 -1 -3 -1 -4 -27 -27 -7 -1 -28 -26 -14 0 0 0 0 0 0 0 0 0 0 0 0
-13 -11 -7 0 -1 0 -1 -7 -26 -19 -2 -1 -1 -1 0 -1 -1 -1 -5 -33 -9 -19 -19 -54 -111 0 -76 0 0 -12 0 0 0 0 0 0 0 0 0 0 0 -1 0 -7
-8 -1 0 0 0 -1 -2 -15 -7 -2 0 -1 -1 -1 -2 -1 -1 -34 -49 -1 -8 -50 -118 -17 0 0 -71 -16 -9 -18 0 0 0 0 0 0 0 0 0 0 -1 0 -1 0
-1 -1 0 0 0 0 -8 0 -11 -10 -2 -1 -1 -1 -1 -1 -63 -34 -2 -19 -77 -134 0 0 0 0 -46 -1 -22 0 0 0 0 0 0 0 0 0 0 0 0 0 0 0
-2 -3 0 -4 0 -1 -14 -30 -43 0 -2 -2 -1 -2 0 -1 -14 -30 -40 -73 -106 -14 0 0 0 0 -10 -42 0 0 0 0 0 0 0 0 0 -2 0 0 0 0 0 0
-1 -1 0 -1 -1 -1 -24 -18 -2 -9 -3 -3 -1 -5 -1 -22 -30 -38 -58 -69 -14 0 0 0 0 0 -12 0 0 0 0 0 0 0 0 0 -1 -1 0 0 0 0 0 0
-1 -1 -1 -2 -1 -15 -20 -21 -10 -11 -8 -1 0 -13 -14 -22 -27 -64 -9 0 0 0 0 0 0 -86 -46 0 0 0 0 0 0 0 0 -1 -2 0 0 0 0 0 0 0
-1 -9 -1 0 -1 -1 -6 -13 -1 -1 -2 -8 -10 -15 -24 -27 -25 0 0 0 0 0 0 0 0 -62 -57 0 0 0 0 0 0 0 0 0 -1 -1 0 0 0 0 0 0
-2 -4 -1 -1 -2 -1 0 -2 -1 0 -7 -8 -17 -31 0 0 0 0 0 0 0 0 0 0 0 -51 0 0 0 0 0 -1 0 -3 -1 -2 -2 -1 0 -1 -14 -1 0 -1
0 -1 0 0 -3 0 -1 -45 -1 -1 -2 -1 -14 0 0 0 0 0 0 0 0 0 0 0 0 0 0 0 0 0 0 0 0 -2 -1 -1 -4 -3 -1 -1 -1 0 0 0
Wind_Speed
nan nan nan nan nan nan nan nan nan nan nan nan nan nan nan nan nan nan 17 23 28 29 38 34 30 37 37 42 44 41 42 40 35 32 30 31 30 21 34 32 35 34 nan nan
nan nan nan nan nan nan nan nan nan nan nan nan nan nan nan nan 18 13 14 20 23 26 31 34 36 35 38 42 39 37 34 34 34 32 32 30 29 28 26 29 35 38 37 36
nan nan nan nan nan nan nan nan nan nan nan nan nan nan nan nan 33 22 15 20 23 25 32 36 37 36 39 39 34 31 29 30 33 30 30 32 31 32 33 39 39 45 43 nan
nan nan nan nan nan nan nan nan nan nan nan nan nan nan 21 nan nan 34 22 22 25 27 26 31 28 34 36 28 33 31 33 36 38 38 32 32 29 30 37 43 46 48 47 nan
nan nan nan nan nan nan nan nan nan nan nan nan nan nan 26 nan 19 nan 17 14 14 18 27 36 39 36 31 33 34 38 40 45 46 41 35 34 36 38 43 nan 49 50 55 nan
nan nan nan nan nan nan nan nan nan nan nan nan nan nan 23 nan nan 15 20 nan 17 17 29 40 46 30 36 33 36 47 46 47 43 38 39 40 41 43 45 48 49 nan nan nan
nan nan nan nan nan nan nan nan nan nan nan nan nan nan 27 nan nan nan nan nan nan 18 26 30 19 44 36 39 40 42 49 44 42 41 43 44 44 46 47 49 nan 53 nan nan
nan nan nan nan nan nan 16 nan nan nan nan nan nan nan nan nan nan nan nan nan nan nan 21 24 36 35 29 40 39 47 44 40 43 44 45 46 49 52 52 57 56 58 nan nan
nan nan nan nan nan nan 12 12 nan 9 5 nan nan nan 29 nan nan nan nan nan nan nan 33 29 31 40 32 40 43 39 38 38 41 44 48 51 54 44 53 60 57 nan nan nan
15 10 nan nan nan nan 19 nan 3 nan 6 5 nan 10 nan nan nan nan nan nan nan 27 22 28 33 48 36 36 40 40 33 36 41 46 50 53 57 nan 59 56 53 nan nan nan
nan 7 18 nan nan 23 22 nan 12 9 13 5 7 9 nan nan nan nan nan nan nan 18 21 29 34 41 41 32 30 33 36 39 45 52 56 nan nan 59 60 53 nan nan nan nan
12 9 11 nan 10 nan nan 15 nan 11 nan nan 13 14 nan nan nan nan nan 23 30 22 26 24 29 37 36 35 30 30 37 41 44 58 nan nan nan 56 57 nan nan nan nan nan
14 7 5 8 27 25 nan nan nan 22 18 7 4 8 nan nan nan 22 25 27 21 nan 31 24 29 28 38 34 33 36 36 38 52 nan nan nan 56 52 nan nan nan nan nan nan
13 6 7 10 27 24 23 23 nan 23 15 11 9 nan nan 29 33 29 26 24 24 25 33 33 28 27 26 29 33 34 38 52 nan nan nan 52 nan nan nan nan nan 51 nan nan
10 5 9 11 18 nan 10 5 15 14 14 nan nan nan 21 34 29 28 29 23 24 32 33 30 29 26 25 31 32 nan nan 43 nan nan nan nan nan nan nan nan nan nan nan nan
17 10 10 8 25 19 9 10 nan nan nan nan 13 nan nan 6 29 32 26 28 30 28 29 28 24 26 27 32 nan nan 45 48 nan nan nan nan nan nan nan nan nan nan nan 18
17 14 20 7 29 23 18 nan 24 nan nan nan 11 21 22 24 28 25 34 36 27 27 24 24 25 nan nan 34 nan nan nan nan nan nan nan nan nan nan nan nan nan nan nan nan
20 22 18 22 15 13 32 29 nan nan nan nan 10 nan 24 30 29 36 33 37 25 25 22 nan nan nan nan nan nan nan nan nan nan nan nan nan nan nan nan nan nan nan nan nan
24 25 23 22 15 nan 21 37 33 31 21 nan 21 30 25 21 28 35 nan 35 32 nan nan nan nan nan nan 36 nan nan nan nan nan nan nan nan nan nan nan nan nan nan nan nan
24 23 21 nan 9 8 37 32 35 nan nan 31 30 31 26 18 27 28 30 26 nan nan nan nan nan nan nan 36 nan nan nan nan nan nan nan nan nan nan nan nan nan nan nan 15
13 14 4 8 14 12 41 nan nan nan 33 28 27 27 26 26 27 25 20 nan nan nan nan nan nan nan 36 nan nan nan nan nan nan nan nan nan nan nan nan nan nan nan 15 14
16 15 10 9 nan nan 33 nan nan 27 24 21 24 23 25 24 20 16 nan nan nan nan nan nan nan nan 35 nan nan nan nan nan nan nan nan nan nan nan nan nan nan nan nan nan
19 22 17 nan nan nan nan 24 23 14 15 19 18 18 17 12 14 nan nan nan nan nan nan nan nan nan nan nan nan nan nan nan nan nan nan nan nan nan nan nan nan 14 13 nan
nan nan nan nan nan nan nan nan 13 14 13 15 14 11 11 nan nan nan nan nan nan nan nan nan nan nan nan nan nan nan nan nan nan nan nan nan nan nan nan nan nan nan 12 11
30 37 nan nan nan nan nan nan 11 18 13 10 11 13 nan nan nan nan nan nan nan nan nan nan nan nan nan nan nan nan nan nan nan nan nan nan nan nan nan nan nan nan nan nan
nan nan nan nan nan nan nan nan 14 10 10 10 14 nan nan nan nan nan nan nan nan nan nan nan nan nan nan nan nan nan nan nan nan nan nan nan nan nan nan nan nan nan nan nan
Wind_Direction
nan nan nan nan nan nan nan nan nan nan nan nan nan nan nan nan nan nan 301 300 306 308 302 304 311 309 310 313 317 319 322 324 327 328 328 325 319 296 311 312 309 311 nan nan
nan nan nan nan nan nan nan nan nan nan nan nan nan nan nan nan 294 280 294 309 314 307 306 311 313 311 312 312 316 319 323 326 329 330 326 310 308 312 315 315 316 324 316 311
nan nan nan nan nan nan nan nan nan nan nan nan nan nan nan nan 312 302 309 304 311 315 312 315 316 313 315 319 319 320 323 327 328 324 325 328 329 327 325 315 318 308 308 nan
nan nan nan nan nan nan nan nan nan nan nan nan nan nan 283 nan nan 303 324 341 329 315 314 301 299 312 320 321 316 323 324 327 331 329 327 320 316 319 308 319 308 307 311 nan
nan nan nan nan nan nan nan nan nan nan nan nan nan nan 269 nan 323 nan 313 307 307 308 305 308 321 321 318 312 320 321 326 331 324 326 325 325 322 308 309 nan 305 309 315 nan
nan nan nan nan nan nan nan nan nan nan nan nan nan nan 277 nan nan 282 314 nan 318 332 305 307 318 318 327 316 315 321 325 324 327 328 327 321 315 310 306 306 312 nan nan nan
nan nan nan nan nan nan nan nan nan nan nan nan nan nan 256 nan nan nan nan nan nan 328 299 304 307 319 304 317 321 323 323 328 326 327 323 320 315 311 317 314 nan 309 nan nan
nan nan nan nan nan nan 251 nan nan nan nan nan nan nan nan nan nan nan nan nan nan nan 288 283 288 307 308 304 314 319 322 325 322 325 322 318 317 317 318 312 314 317 nan nan
nan nan nan nan nan nan 353 278 nan 70 24 nan nan nan 295 nan nan nan nan nan nan nan 292 304 305 302 311 309 320 319 322 321 322 322 321 321 317 314 312 314 317 nan nan nan
209 181 nan nan nan nan 123 nan 349 nan 315 226 nan 299 nan nan nan nan nan nan nan 271 296 300 303 307 315 320 320 325 321 324 321 323 325 320 319 nan 315 317 316 nan nan nan
nan 197 236 nan nan 319 4 nan 12 350 317 326 311 257 nan nan nan nan nan nan nan 306 292 295 301 305 316 319 316 310 324 325 330 327 318 nan nan 319 320 319 nan nan nan nan
257 209 213 nan 54 nan nan 222 nan 308 nan nan 14 296 nan nan nan nan nan 300 297 293 295 310 307 309 316 312 312 309 315 326 325 314 nan nan nan 322 319 nan nan nan nan nan
255 309 90 314 280 261 nan nan nan 320 351 358 350 315 nan nan nan 297 302 308 314 nan 294 306 300 306 300 309 312 320 321 320 313 nan nan nan 321 321 nan nan nan nan nan nan
257 246 166 177 315 346 352 309 nan 314 355 280 274 nan nan 281 287 297 300 301 295 292 293 295 301 292 295 301 303 311 313 315 nan nan nan 321 nan nan nan nan nan 321 nan nan
253 268 283 250 249 nan 273 298 279 282 274 nan nan nan 268 279 297 297 304 304 291 285 295 304 302 297 302 306 316 nan nan 319 nan nan nan nan nan nan nan nan nan nan nan nan
272 266 264 254 311 309 304 306 nan nan nan nan 294 nan nan 255 290 294 297 296 288 294 299 295 300 302 312 315 nan nan 316 319 nan nan nan nan nan nan nan nan nan nan nan 325
276 267 297 318 286 287 322 nan 259 nan nan nan 282 266 306 284 294 297 297 286 293 306 301 303 309 nan nan 314 nan nan nan nan nan nan nan nan nan nan nan nan nan nan nan nan
277 285 284 295 293 327 283 309 nan nan nan nan 280 nan 273 292 303 290 280 268 314 304 308 nan nan nan nan nan nan nan nan nan nan nan nan nan nan nan nan nan nan nan nan nan
264 277 274 280 295 nan 267 271 295 294 292 nan 274 275 286 298 310 300 nan 326 306 nan nan nan nan nan nan 323 nan nan nan nan nan nan nan nan nan nan nan nan nan nan nan nan
277 276 272 nan 255 277 258 286 284 nan nan 272 287 293 292 303 297 309 307 306 nan nan nan nan nan nan nan 327 nan nan nan nan nan nan nan nan nan nan nan nan nan nan nan 31
312 293 301 280 252 268 263 nan nan nan 290 295 292 299 300 296 295 303 298 nan nan nan nan nan nan nan 328 nan nan nan nan nan nan nan nan nan nan nan nan nan nan nan 13 18
247 248 253 274 nan nan 270 nan nan 287 301 300 298 299 307 311 312 304 nan nan nan nan nan nan nan nan 327 nan nan nan nan nan nan nan nan nan nan nan nan nan nan nan nan nan
281 263 255 nan nan nan nan 292 293 299 305 304 307 310 316 321 306 nan nan nan nan nan nan nan nan nan nan nan nan nan nan nan nan nan nan nan nan nan nan nan nan 14 32 nan
nan nan nan nan nan nan nan nan 295 307 312 312 319 328 323 nan nan nan nan nan nan nan nan nan nan nan nan nan nan nan nan nan nan nan nan nan nan nan nan nan nan nan 24 57
255 286 nan nan nan nan nan nan 279 314 310 314 315 311 nan nan nan nan nan nan nan nan nan nan nan nan nan nan nan nan nan nan nan nan nan nan nan nan nan nan nan nan nan nan
nan nan nan nan nan nan nan nan 300 314 325 323 312 nan nan nan nan nan nan nan nan nan nan nan nan nan nan nan nan nan nan nan nan nan nan nan nan nan nan nan nan nan nan nan